Location: Ferques
(50.8300°N, 1.7599°E)
Time: 19:40:37
(UTC+00:00)

Cosmos 2322 Rocket - Pass Details

Date: 19 May 2025
Orbit: 832 x 849 km, 71.0° (Epoch: 21 June)

Event Time Altitude Azimuth Distance (km) Brightness Sun altitude
Rises 22:48:26 0° 331° (NNW) 3,418 6.9 -17.9°
Reaches altitude 10° 22:50:58 10° 336° (NNW) 2,477 5.9 -18.0°
Maximum altitude 22:56:34 57° 55° (NE) 994 2.6 -18.2°
Enters shadow 23:00:05 22° 126° (SE) 1,740 3.4 -18.4°
